ROMMA est une association bénévole à but non lucratif. Votre soutien est indispensable : ADHERER à ROMMA ou FAIRE un DON

Crêts du Salève - (74, Haute-Savoie)

Salève (1270 m)   Longitude: 6° 10' 28'' E   Latitude: 46° 7' 42'' N Station romma n°73
 

Détail journalier du     <<     >>

Température Precipitation Humidité Vent Dir Rafale Dir. rafale Ensol.
Heure (°C) (mm) (%) (km/h) (km/h) (min)
01:00 4.10.89828O53O0
02:00 4.509521ONO34ONO0
03:00 4.309516ONO29ONO0
04:00 3.60.69813O23O0
05:00 3.909415NNO23NNO0
06:00 3.709613NO19NNO0
07:00 3.609715NE21NE0
08:00 3.909616NNE23NNE0
09:00 3.709815NNO21NO10
10:00 5.209610N18NNO30
11:00 4.909212NNE19NNE60
12:00 5.308817NO26NNO50
13:00 6.209216NNO23NNO50
14:00 6.808912NNO19NNO60
15:00 7.108814NO31NO60
16:00 7.708415NNO27ONO60
17:00 7.308918NNO29NNO50
18:00 7.108919NO27NNO50
19:00 6.709216NNO23NO0
20:00 6.109417NNO21N0
21:00 6.109417NNO23NNO0
22:00 6.308812NNO19NNO0
23:00 6.50877NNE11NNE0
minuit 6.70854NNE8NNE0

Graphique du 07-10-2019

 

Serveur OMMA